Greenville, AL

1:29 PM CST on January 21, 2018 (GMT -0600)
Greenville Municipal

Weather History for KPRN - December, 2013

Change the Weather History Date:

Sunday, December 29, 2013

  Actual Average Record
Temperature  
Mean Temperature 46 °F -  
Max Temperature 54 °F 59 °F 82 °F (1984)
Min Temperature 37 °F 37 °F 20 °F (1961)
Degree Days  
Heating Degree Days 20    
Moisture  
Dew Point 43 °F    
Average Humidity 90    
Maximum Humidity 100    
Minimum Humidity 69    
Precipitation  
Precipitation 0.01 in - - ()
Sea Level Pressure  
Sea Level Pressure 30.00 in    
Wind  
Wind Speed 5 mph (NW)    
Max Wind Speed 9 mph    
Max Gust Speed -    
Visibility 8 miles    
Events Rain    
Averages and records for this station are not official NWS values.
T = Trace of Precipitation, MM = Missing Value Source: NWS Daily Summary

Daily Weather History Graph

Daily Weather History Graph

Search for Another Location

Airport or City:

Trip Planner

Search our weather history database for the weather conditions in past years. The results will help you decide how hot, cold, wet, or windy it might be!

Date:

Astronomy

Dec. 29, 2013 Rise Set
Actual Time 6:45 AM CST 4:51 PM CST
Civil Twilight 6:18 AM CST 5:18 PM CST
Nautical Twilight 5:48 AM CST 5:48 PM CST
Astronomical Twilight 5:18 AM CST 6:18 PM CST
Moon 3:33 AM CST (12/29) 2:25 PM CST (12/29)
Length of Visible Light 10h 59m
Length of Day
10h 05m
Waning Crescent, 11% of the Moon is Illuminated
Dec 29
Waning Crescent
Jan 1
New
Jan 7
First Quarter
Jan 15
Full
Jan 23
Last Quarter

Hourly Weather History & Observations

Time (CST) Temp. Windchill Dew Point Humidity Pressure Visibility Wind Dir Wind Speed Gust Speed Precip Events Conditions
12:12 AM 44.6 °F 41.4 °F 42.8 °F 93% 29.88 in 3.0 mi North 5.8 mph - N/A   Overcast
12:48 AM 44.6 °F 40.2 °F 42.8 °F 93% 29.92 in 2.5 mi WNW 8.1 mph - N/A   Overcast
12:56 AM 44.1 °F 40.8 °F 43.0 °F 96% 29.93 in 2.5 mi WNW 5.8 mph - N/A   Overcast
1:09 AM 44.6 °F 41.4 °F 42.8 °F 93% 29.91 in 3.0 mi NW 5.8 mph - N/A   Overcast
1:56 AM 45.0 °F 43.5 °F 43.0 °F 93% 29.91 in 4.0 mi NW 3.5 mph - N/A   Overcast
2:46 AM 44.6 °F 43.1 °F 44.6 °F 100% 29.91 in 2.5 mi North 3.5 mph - N/A   Overcast
2:56 AM 45.0 °F - 44.1 °F 97% 29.91 in 2.5 mi Calm Calm - N/A   Overcast
3:22 AM 44.6 °F 43.1 °F 44.6 °F 100% 29.91 in 6.0 mi NNW 3.5 mph - N/A   Overcast
3:56 AM 45.0 °F 40.6 °F 43.0 °F 93% 29.94 in 9.0 mi West 8.1 mph - 0.00 in Rain Light Rain
4:56 AM 45.0 °F 42.6 °F 44.1 °F 97% 29.93 in 10.0 mi WNW 4.6 mph - 0.00 in   Overcast
5:56 AM 45.0 °F 41.2 °F 44.1 °F 97% 29.95 in 8.0 mi WNW 6.9 mph - N/A   Overcast
6:56 AM 45.0 °F 41.8 °F 44.1 °F 97% 29.99 in 10.0 mi NW 5.8 mph - N/A   Overcast
7:56 AM 46.0 °F 41.4 °F 44.1 °F 93% 30.02 in 7.0 mi WNW 9.2 mph - N/A   Overcast
8:56 AM 46.0 °F 41.9 °F 44.1 °F 93% 30.05 in 9.0 mi WNW 8.1 mph - N/A   Overcast
10:56 AM 48.0 °F - 45.0 °F 89% 30.05 in 10.0 mi NNW 9.2 mph - N/A   Overcast
11:56 AM 48.9 °F - 45.0 °F 86% 30.04 in 10.0 mi NNW 5.8 mph - N/A   Overcast
12:03 PM 48.2 °F - 44.6 °F 87% 30.03 in 10.0 mi NNW 5.8 mph - N/A   Overcast
12:56 PM 48.9 °F - 45.0 °F 86% 30.02 in 10.0 mi WNW 5.8 mph - N/A   Overcast
1:56 PM 51.1 °F - 45.0 °F 80% 30.01 in 10.0 mi North 6.9 mph - N/A   Overcast
2:03 PM 50.0 °F - 44.6 °F 82% 30.01 in 10.0 mi NNW 5.8 mph - N/A   Overcast
2:56 PM 54.0 °F - 44.1 °F 69% 30.00 in 10.0 mi Calm Calm - N/A   Clear
3:56 PM 54.0 °F - 44.1 °F 69% 30.01 in 10.0 mi NNW 5.8 mph - N/A   Clear
4:56 PM 50.0 °F - 44.1 °F 80% 30.02 in 10.0 mi NNW 3.5 mph - N/A   Clear
5:56 PM 45.0 °F - 43.0 °F 93% 30.04 in 10.0 mi Calm Calm - N/A   Clear
6:56 PM 43.0 °F - 41.0 °F 93% 30.07 in 10.0 mi Calm Calm - N/A   Clear
7:56 PM 41.0 °F - 39.0 °F 93% 30.09 in 10.0 mi Calm Calm - N/A   Clear
8:56 PM 39.0 °F - 37.0 °F 93% 30.11 in 10.0 mi Calm Calm - N/A   Clear
9:56 PM 37.9 °F 35.5 °F 36.0 °F 93% 30.10 in 10.0 mi North 3.5 mph - 0.01 in   Clear
10:56 PM 37.9 °F - 36.0 °F 93% 30.10 in 10.0 mi Calm Calm - N/A   Clear
11:56 PM 37.0 °F - 35.1 °F 93% 30.09 in 10.0 mi Calm Calm - N/A   Clear